VE3KCY Weather Reports


Display with metric or nautical units.
time (UTC)temp
F
wind
direction
speed
MPH
gust
MPH
rain 1hr
in
rain 24hr
in
rain mn
in
humidity
%
barometer
mb
20260506003008 45 188 0.0 0.0 0.00 0.04 0.04 77 1007.3
20260506001512 46 188 0.0 2.0 0.00 0.04 0.04 74 1007.3
20260506000025 46 188 0.0 2.0 0.00 0.04 0.04 75 1007.4
20260505234522 46 188 0.0 2.0 0.00 0.04 0.04 73 1007.3
20260505233007 47 238 0.0 2.0 0.00 0.04 0.04 71 1007.2
20260505231513 47 233 0.0 2.0 0.00 0.04 0.04 71 1007.1
20260505230030 47 261 0.0 2.0 0.00 0.04 0.04 71 1007.0
20260505224520 47 266 0.0 3.0 0.00 0.04 0.04 68 1007.1
20260505223024 47 217 0.0 2.0 0.00 0.04 0.04 71 1007.4
20260505221508 47 250 1.0 2.0 0.00 0.04 0.04 70 1007.7
20260505220014 47 222 0.0 2.0 0.00 0.04 0.04 71 1007.3
20260505214519 47 228 1.0 4.0 0.00 0.04 0.04 70 1007.4
20260505213027 47 245 1.0 3.0 0.00 0.04 0.04 69 1007.4
20260505211530 46 241 0.0 4.0 0.00 0.04 0.04 72 1007.3
20260505210009 46 203 0.0 5.0 0.00 0.04 0.04 73 1007.2
20260505204517 46 234 1.0 5.0 0.00 0.04 0.04 72 1007.3
20260505203023 46 250 0.0 2.0 0.00 0.04 0.04 74 1007.1
20260505201525 46 229 1.0 4.0 0.00 0.04 0.04 73 1007.2
20260505200028 46 276 1.0 7.0 0.00 0.04 0.04 75 1007.1
20260505194513 45 340 1.0 7.0 0.00 0.04 0.04 79 1007.1
20260505193020 45 210 0.0 6.0 0.02 0.04 0.04 80 1006.8
20260505191530 45 272 0.0 4.0 0.04 0.04 0.04 82 1006.5
20260505190028 45 267 1.0 4.0 0.04 0.04 0.04 82 1006.7
20260505184537 46 259 0.0 4.0 0.04 0.04 0.04 82 1006.3
20260505183019 46 281 0.0 3.0 0.02 0.02 0.02 80 1006.2
20260505181503 47 245 1.0 4.0 0.00 0.00 0.00 76 1006.2
20260505180005 49 352 1.0 4.0 0.00 0.00 0.00 67 1005.9
20260505174508 51 338 2.0 5.0 0.00 0.00 0.00 60 1005.6
20260505173014 51 304 1.0 7.0 0.00 0.00 0.00 58 1005.3
20260505171530 51 288 1.0 6.0 0.00 0.00 0.00 62 1005.3
20260505170004 51 237 1.0 5.0 0.00 0.00 0.00 58 1005.3
20260505164504 52 357 1.0 6.0 0.00 0.00 0.00 59 1005.2
20260505163014 52 304 3.0 8.0 0.00 0.00 0.00 58 1005.0
20260505161518 52 303 1.0 7.0 0.00 0.00 0.00 59 1004.9
20260505153028 53 11 2.0 8.0 0.00 0.00 0.00 58 1004.9
20260505151514 53 231 2.0 6.0 0.00 0.00 0.00 62 1004.1
20260505124519 48 352 2.0 6.0 0.00 0.00 0.00 82 1002.3
20260505123030 49 321 2.0 6.0 0.00 0.00 0.00 82 1001.5
20260505121528 50 267 1.0 7.0 0.00 0.00 0.00 83 1001.2
20260505120011 53 91 1.0 9.0 0.00 0.00 0.00 83 1001.0
20260505114516 54 284 3.0 9.0 0.00 0.00 0.00 83 1000.4
20260505113022 54 233 2.0 8.0 0.00 0.00 0.00 83 1000.2
20260505111532 54 268 3.0 9.0 0.00 0.00 0.00 83 999.9
20260505101524 54 233 2.0 7.0 0.00 0.00 0.00 84 999.0
20260505100032 54 206 3.0 6.0 0.00 0.00 0.00 84 999.0
20260505094526 54 302 1.0 6.0 0.00 0.00 0.00 83 998.8
20260505093018 54 229 1.0 8.0 0.00 0.00 0.00 83 998.5
20260505091504 54 221 2.0 7.0 0.00 0.00 0.00 83 998.4
20260505090008 55 196 2.0 8.0 0.00 0.00 0.00 82 998.5
20260505084512 55 245 1.0 4.0 0.00 0.00 0.00 82 998.0
20260505083015 55 217 1.0 4.0 0.00 0.00 0.00 81 998.1
20260505081525 56 237 2.0 6.0 0.00 0.00 0.00 79 998.2
20260505080003 56 219 2.0 5.0 0.00 0.00 0.00 79 998.6
20260505074508 56 236 2.0 5.0 0.00 0.00 0.00 78 998.7
20260505073015 57 201 2.0 8.0 0.00 0.00 0.00 77 998.8
20260505071520 56 143 2.0 9.0 0.00 0.00 0.00 78 998.9
20260505070022 57 221 1.0 9.0 0.00 0.00 0.00 77 999.1
20260505064505 57 176 3.0 10.0 0.00 0.00 0.00 76 999.0
20260505063011 57 220 3.0 9.0 0.00 0.00 0.00 76 999.2
20260505061516 57 172 3.0 8.0 0.00 0.00 0.00 76 999.3
20260505060022 57 199 2.0 12.0 0.00 0.00 0.00 76 999.4
20260505054542 57 205 2.0 8.0 0.00 0.00 0.00 76 999.5
20260505053011 57 191 2.0 8.0 0.00 0.00 0.00 76 999.6
20260505051516 58 323 2.0 13.0 0.00 0.00 0.00 75 999.5
20260505041511 59 144 3.0 13.0 0.00 0.00 0.00 72 999.5
20260505040016 58 200 5.0 11.0 0.00 0.00 0.00 72 999.6
20260505034526 58 349 4.0 8.0 0.00 0.00 0.00 73 999.7
20260505033024 58 105 3.0 10.0 0.00 0.00 0.00 72 999.8
20260505031505 59 208 3.0 14.0 0.00 0.00 0.00 71 999.8
20260505030033 59 198 3.0 13.0 0.00 0.00 0.00 70 1000.0
20260505024518 59 101 3.0 9.0 0.00 0.00 0.00 69 1000.1
20260505023025 59 165 3.0 9.0 0.00 0.00 0.00 69 1000.0
20260505021525 59 157 3.0 7.0 0.00 0.00 0.00 68 1000.1
20260505020012 59 181 2.0 5.0 0.00 0.00 0.00 66 1000.3
20260505014519 60 212 2.0 5.0 0.00 0.00 0.00 65 1000.3
20260505013022 60 174 3.0 8.0 0.00 0.00 0.00 64 1000.2
20260505011524 60 200 2.0 6.0 0.00 0.00 0.00 62 1000.1
20260505010027 61 162 2.0 6.0 0.00 0.00 0.00 60 1000.0
20260505004528 61 156 2.0 4.0 0.00 0.00 0.00 58 1000.0